This demonstration page uses our WeatherBlox Daily Observations layout. Learn more.

Left ArrowRight Arrow

Hourly Observations for December 19, 2015

Temp ( °F °C ) Dew Point ( °F °C ) Humidity (%) Winds ( mph kmh ) Pressure ( in mb ) Visibility ( mi km ) Precip ( " mm )
12:53 am 00:53 Mostly Cloudy 32 undefined 15 -9.4 50 50 SW 9 15 30.20 1023 10 16 N/A
1:53 am 01:53 Mostly Cloudy 31 -0.6 16 -8.9 54 54 WSW 9 15 30.20 1023 10 16 N/A
2:53 am 02:53 Clear 30 -1.1 17 -8.3 58 58 SW 6 9 30.22 1023 10 16 N/A
3:53 am 03:53 Clear 28 -2.2 17 -8.3 63 63 WSW 5 7 30.22 1023 10 16 N/A
4:53 am 04:53 Clear 27 -2.8 18 -7.8 69 69 W 6 9 30.24 1024 10 16 N/A
5:53 am 05:53 Cloudy 29 -1.7 19 -7.2 66 66 W 7 11 30.28 1025 10 16 N/A
6:53 am 06:53 Clear 28 -2.2 17 -8.3 63 63 W 7 11 30.30 1026 10 16 N/A
7:53 am 07:53 Clear 27 -2.8 16 -8.9 63 63 W 6 9 30.34 1027 10 16 N/A
8:53 am 08:53 Sunny 28 -2.2 17 -8.3 63 63 W 8 13 30.38 1029 10 16 N/A
9:53 am 09:53 Sunny 28 -2.2 10 -12.2 47 47 W 13 20 30.43 1031 10 16 N/A
10:53 am 10:53 Sunny 30 -1.1 10 -12.2 43 43 NW 17 28 30.46 1032 10 16 N/A
11:53 am 11:53 Sunny 33 0.6 7 -13.9 33 33 WNW 13 20 30.46 1032 10 16 N/A
12:53 pm 12:53 Sunny 35 1.7 8 -13.3 32 32 WSW 9 15 30.45 1031 10 16 N/A
1:53 pm 13:53 Sunny 36 2.2 8 -13.3 31 31 W 13 20 30.45 1031 10 16 N/A
2:53 pm 14:53 Sunny 36 2.2 9 -12.8 32 32 W 8 13 30.46 1032 10 16 N/A
3:53 pm 15:53 Sunny 36 2.2 9 -12.8 32 32 WSW 9 15 30.47 1032 10 16 N/A
4:53 pm 16:53 Sunny 34 1.1 9 -12.8 35 35 W 7 11 30.48 1032 10 16 N/A
5:53 pm 17:53 Clear 29 -1.7 12 -11.1 49 49 N N/A 30.50 1033 10 16 N/A
6:53 pm 18:53 Clear 24 -4.4 15 -9.4 68 68 N N/A 30.52 1033 10 16 N/A
7:53 pm 19:53 Clear 22 -5.6 15 -9.4 75 75 N N/A 30.53 1034 10 16 N/A
8:53 pm 20:53 Clear 21 -6.1 16 -8.9 81 81 N N/A 30.52 1034 10 16 N/A
9:53 pm 21:53 Clear 21 -6.1 16 -8.9 81 81 N N/A 30.53 1034 10 16 N/A
10:53 pm 22:53 Clear 20 -6.7 17 -8.3 89 89 E 3 6 30.53 1034 10 16 N/A
11:53 pm 23:53 Clear 20 -6.7 17 -8.3 89 89 N N/A 30.54 1034 10 16 N/A

Powered by AerisWeather